Location: Goettingen
(51.5300°N, 9.9433°E)
Time: 08:57:30
(UTC+01:00)

ISS - Pass Details

Date: 14 November 2018
Orbit: 401 x 408 km, 51.6° (Epoch: 20 November)

Event Time Altitude Azimuth Distance (km) Brightness Sun altitude
Exits shadow 05:45:00 11° 203° (SSW) 1,384 -1.3 -17.2°
Drops below altitude 10° 05:45:28 10° 195° (SSW) 1,458 -1.1 -17.1°
Sets 05:48:29 0° 164° (SSE) 2,314 0.3 -16.6°
